• In Belarus
  • List of Countries
  • For 7 days
  • Water Temperature
  • Satellite Maps
  • Weather Map
  • Weather Widgets
  • user-avatar
    Login

    Hourly Weather Sylhet

    Today, 17 December, Sunday

    Time Temperature Precipitation Wind Pressure Humidity
    00:00 +20°C° 0 mm 1 mps 762 mmHg 75%
    01:00 +19°C° 0 mm 1 mps 762 mmHg 76%
    02:00 +19°C° 0 mm 1 mps 762 mmHg 78%
    03:00 +19°C° 0 mm 1 mps 761 mmHg 80%
    04:00 +18°C° 0 mm 1 mps 762 mmHg 81%
    05:00 +18°C° 0 mm 1 mps 762 mmHg 82%
    06:00 +18°C° 0 mm 1 mps 762 mmHg 83%
    07:00 +19°C° 0 mm 1 mps 762 mmHg 78%
    08:00 +21°C° 0 mm 1 mps 762 mmHg 73%
    09:00 +23°C° 0 mm 1 mps 763 mmHg 68%
    10:00 +24°C° 0 mm 1 mps 762 mmHg 62%
    11:00 +26°C° 0 mm 1 mps 762 mmHg 57%
    12:00 +28°C° 0 mm 1 mps 762 mmHg 52%
    13:00 +28°C° 0 mm 1 mps 761 mmHg 50%
    14:00 +26°C° 0 mm 0 mps 761 mmHg 48%
    15:00 +26°C° 0 mm 0 mps 760 mmHg 47%
    16:00 +25°C° 0 mm 0 mps 760 mmHg 52%
    17:00 +23°C° 0 mm 0 mps 761 mmHg 57%
    18:00 +21°C° 0 mm 0 mps 761 mmHg 62%
    19:00 +21°C° 0 mm 0 mps 761 mmHg 64%
    20:00 +22°C° 0 mm 1 mps 762 mmHg 66%
    21:00 +21°C° 0 mm 1 mps 762 mmHg 68%
    22:00 +21°C° 0 mm 1 mps 762 mmHg 70%
    23:00 +21°C° 0 mm 1 mps 762 mmHg 73%

    Tomorrow, 18 December, Monday

    Time Temperature Precipitation Wind Pressure Humidity
    00:00 +20°C° 0 mm 1 mps 762 mmHg 75%
    01:00 +20°C° 0 mm 1 mps 762 mmHg 77%
    02:00 +19°C° 0 mm 1 mps 762 mmHg 79%
    03:00 +19°C° 0 mm 1 mps 761 mmHg 81%
    04:00 +18°C° 0 mm 1 mps 762 mmHg 82%
    05:00 +18°C° 0 mm 1 mps 762 mmHg 83%
    06:00 +18°C° 0 mm 1 mps 762 mmHg 83%
    07:00 +19°C° 0 mm 1 mps 762 mmHg 78%
    08:00 +21°C° 0 mm 1 mps 763 mmHg 72%
    09:00 +23°C° 0 mm 2 mps 763 mmHg 66%
    10:00 +24°C° 0 mm 1 mps 763 mmHg 60%
    11:00 +26°C° 0 mm 1 mps 762 mmHg 55%
    12:00 +28°C° 0 mm 1 mps 762 mmHg 49%
    13:00 +28°C° 0 mm 1 mps 761 mmHg 47%
    14:00 +28°C° 0 mm 1 mps 761 mmHg 46%
    15:00 +29°C° 0 mm 1 mps 760 mmHg 44%
    16:00 +27°C° 0 mm 1 mps 760 mmHg 49%
    17:00 +25°C° 0 mm 1 mps 761 mmHg 54%
    18:00 +23°C° 0 mm 1 mps 761 mmHg 59%
    19:00 +22°C° 0 mm 1 mps 762 mmHg 61%
    20:00 +22°C° 0 mm 1 mps 762 mmHg 63%
    21:00 +21°C° 0 mm 1 mps 763 mmHg 64%
    22:00 +21°C° 0 mm 1 mps 763 mmHg 66%
    23:00 +20°C° 0 mm 1 mps 762 mmHg 68%

    Day after tomorrow, 19 December, Tuesday

    Time Temperature Precipitation Wind Pressure Humidity
    00:00 +20°C° 0 mm 1 mps 762 mmHg 70%
    01:00 +19°C° 0 mm 1 mps 762 mmHg 72%
    02:00 +19°C° 0 mm 1 mps 762 mmHg 73%
    03:00 +18°C° 0 mm 1 mps 761 mmHg 74%
    04:00 +18°C° 0 mm 1 mps 761 mmHg 75%
    05:00 +18°C° 0 mm 1 mps 762 mmHg 76%
    06:00 +16°C° 0 mm 1 mps 762 mmHg 77%
    07:00 +19°C° 0 mm 1 mps 762 mmHg 72%
    08:00 +21°C° 0 mm 1 mps 763 mmHg 67%
    09:00 +21°C° 0 mm 2 mps 764 mmHg 62%
    10:00 +24°C° 0 mm 1 mps 763 mmHg 57%
    11:00 +26°C° 0 mm 1 mps 763 mmHg 52%
    12:00 +28°C° 0 mm 1 mps 762 mmHg 46%
    13:00 +28°C° 0 mm 1 mps 761 mmHg 45%
    14:00 +28°C° 0 mm 1 mps 761 mmHg 44%
    15:00 +29°C° 0 mm 1 mps 760 mmHg 43%
    16:00 +27°C° 0 mm 1 mps 761 mmHg 48%
    17:00 +25°C° 0 mm 1 mps 761 mmHg 54%
    18:00 +23°C° 0 mm 1 mps 761 mmHg 59%
    19:00 +22°C° 0 mm 1 mps 762 mmHg 61%
    20:00 +22°C° 0 mm 1 mps 762 mmHg 62%
    21:00 +21°C° 0 mm 1 mps 763 mmHg 64%
    22:00 +21°C° 0 mm 1 mps 763 mmHg 65%
    23:00 +20°C° 0 mm 1 mps 763 mmHg 66%

    20 December, Wednesday

    Time Temperature Precipitation Wind Pressure Humidity
    00:00 +20°C° 0 mm 1 mps 763 mmHg 67%
    01:00 +19°C° 0 mm 1 mps 762 mmHg 68%
    02:00 +19°C° 0 mm 1 mps 762 mmHg 69%
    03:00 +18°C° 0 mm 1 mps 762 mmHg 70%
    04:00 +18°C° 0 mm 1 mps 762 mmHg 70%
    05:00 +18°C° 0 mm 1 mps 762 mmHg 70%
    06:00 +16°C° 0 mm 1 mps 763 mmHg 71%
    07:00 +19°C° 0 mm 1 mps 763 mmHg 66%
    08:00 +21°C° 0 mm 1 mps 764 mmHg 62%
    09:00 +23°C° 0 mm 1 mps 764 mmHg 58%
    10:00 +24°C° 0 mm 1 mps 764 mmHg 54%
    11:00 +26°C° 0 mm 1 mps 763 mmHg 50%
    12:00 +28°C° 0 mm 1 mps 762 mmHg 46%
    13:00 +28°C° 0 mm 1 mps 762 mmHg 45%
    14:00 +29°C° 0 mm 1 mps 761 mmHg 44%
    15:00 +29°C° 0 mm 1 mps 760 mmHg 43%
    16:00 +27°C° 0 mm 1 mps 761 mmHg 48%
    17:00 +25°C° 0 mm 1 mps 761 mmHg 54%
    18:00 +23°C° 0 mm 1 mps 761 mmHg 59%
    19:00 +23°C° 0 mm 1 mps 762 mmHg 61%
    20:00 +22°C° 0 mm 1 mps 762 mmHg 62%
    21:00 +21°C° 0 mm 1 mps 763 mmHg 63%
    22:00 +21°C° 0 mm 1 mps 763 mmHg 65%
    23:00 +20°C° 0 mm 1 mps 762 mmHg 66%

    21 December, Thursday

    Time Temperature Precipitation Wind Pressure Humidity
    00:00 +20°C° 0 mm 1 mps 762 mmHg 67%
    01:00 +20°C° 0 mm 1 mps 762 mmHg 68%
    02:00 +19°C° 0 mm 1 mps 762 mmHg 69%
    03:00 +19°C° 0 mm 1 mps 762 mmHg 71%
    04:00 +18°C° 0 mm 1 mps 762 mmHg 71%
    05:00 +18°C° 0 mm 1 mps 762 mmHg 72%
    06:00 +18°C° 0 mm 1 mps 762 mmHg 72%
    07:00 +19°C° 0 mm 1 mps 763 mmHg 68%
    08:00 +21°C° 0 mm 1 mps 763 mmHg 64%
    09:00 +23°C° 0 mm 1 mps 764 mmHg 60%
    10:00 +24°C° 0 mm 1 mps 763 mmHg 56%
    11:00 +26°C° 0 mm 1 mps 763 mmHg 52%
    12:00 +28°C° 0 mm 1 mps 762 mmHg 48%
    13:00 +28°C° 0 mm 1 mps 761 mmHg 47%
    14:00 +28°C° 0 mm 1 mps 760 mmHg 45%
    15:00 +26°C° 0 mm 0 mps 760 mmHg 44%
    16:00 +25°C° 0 mm 0 mps 760 mmHg 49%
    17:00 +23°C° 0 mm 0 mps 760 mmHg 55%
    18:00 +23°C° 0 mm 1 mps 760 mmHg 60%
    19:00 +22°C° 0 mm 1 mps 760 mmHg 62%
    20:00 +22°C° 0 mm 1 mps 761 mmHg 64%
    21:00 +21°C° 0 mm 1 mps 761 mmHg 65%
    22:00 +21°C° 0 mm 1 mps 761 mmHg 67%
    23:00 +20°C° 0 mm 1 mps 761 mmHg 69%

    22 December, Friday

    Time Temperature Precipitation Wind Pressure Humidity
    00:00 +20°C° 0 mm 1 mps 761 mmHg 72%
    01:00 +19°C° 0 mm 1 mps 761 mmHg 74%
    02:00 +19°C° 0 mm 1 mps 760 mmHg 76%
    03:00 +19°C° 0 mm 1 mps 760 mmHg 78%
    04:00 +18°C° 0 mm 1 mps 760 mmHg 79%
    05:00 +18°C° 0 mm 1 mps 760 mmHg 81%
    06:00 +18°C° 0 mm 1 mps 760 mmHg 82%
    07:00 +19°C° 0 mm 1 mps 761 mmHg 77%
    08:00 +21°C° 0 mm 1 mps 761 mmHg 71%
    09:00 +22°C° 0 mm 1 mps 762 mmHg 66%
    10:00 +24°C° 0 mm 1 mps 761 mmHg 61%
    11:00 +26°C° 0 mm 1 mps 760 mmHg 55%
    12:00 +27°C° 0 mm 1 mps 760 mmHg 50%
    13:00 +28°C° 0 mm 1 mps 759 mmHg 48%
    14:00 +28°C° 0 mm 1 mps 759 mmHg 47%
    15:00 +28°C° 0 mm 1 mps 758 mmHg 45%
    16:00 +26°C° 0 mm 1 mps 758 mmHg 50%
    17:00 +24°C° 0 mm 1 mps 759 mmHg 55%
    18:00 +21°C° 0 mm 0 mps 759 mmHg 61%
    19:00 +22°C° 0 mm 1 mps 759 mmHg 62%
    20:00 +22°C° 0 mm 1 mps 760 mmHg 64%
    21:00 +21°C° 0 mm 1 mps 760 mmHg 66%
    22:00 +21°C° 0 mm 1 mps 760 mmHg 69%
    23:00 +20°C° 0 mm 1 mps 760 mmHg 71%
    Show more